Flag for Germany Weather past 2 weeks in Kempen, North Rhine-Westphalia, Germany

Now
63 °F

Scattered clouds.


Feels Like: 63 °F
Forecast: 52 / 66 °F
Wind: 12 mph from West

Location: Monchengladbach Airport

Current Time: Jul 29, 2015 at 11:47:36 AM

Latest Report: Jul 29, 2015 at 11:20 AM


Visibility: N/A

Pressure: 29.74 "Hg

Humidity: 59%

Dew point: 48 °F

Location of KempenLocation

Historic Weather in Kempen — Graph

°F

Kempen temperature yesterday

Maximum temperature yesterday: 64 °F (at 3:50 PM)
Minimum temperature yesterday: 57 °F (at 12:50 PM)
Average temperature yesterday: 62 °F

Past Weeks' High & Low Weather Summary

 TemperatureHumidityPressure
High90 °F (Jul 17, 4:50 PM)100% (Jul 14, 10:20 AM)30.12 "Hg (Jul 14, 10:20 AM)
Low55 °F (Jul 26, 7:50 AM)29% (Jul 17, 4:50 PM)29.50 "Hg (Jul 25, 7:50 AM)
Average69 °F69%29.89 "Hg
* Reported Jul 14 10:20 AM — Jul 29 10:20 AM, Kempen, Weather by CustomWeather, © 2015

Note: Actual official high and low records may vary slightly from our data, if they occured in-between our weather recording intervals... More about our weather records

Advertising

Kempen weather history for previous 24 hours

 ConditionsComfort  
Time TempWeatherWind HumidityBarometerVisibility
10:20 AM
Wed, Jul 29
59 °FScattered clouds.8 mph77%29.77 "HgN/A
9:20 AM59 °FPartly sunny.8 mph82%29.77 "HgN/A
8:50 AM57 °FScattered clouds.10 mph82%29.77 "HgN/A
8:20 AM57 °FScattered clouds.8 mph82%29.77 "HgN/A
7:50 AM55 °FScattered clouds.9 mph82%29.77 "HgN/A
7:20 PM
Tue, Jul 28
63 °FPartly cloudy.10 mph59%29.74 "HgN/A
6:50 PM64 °FPartly cloudy.10 mph56%29.74 "HgN/A
6:20 PM64 °FPassing clouds.10 mph60%29.74 "HgN/A
5:50 PM64 °FPassing clouds.9 mph64%29.74 "HgN/A
5:20 PM63 °FPartly cloudy.16 mph68%29.74 "HgN/A
4:50 PM63 °FPassing clouds.18 mph64%29.74 "HgN/A
4:20 PM63 °FPassing clouds.21 mph64%29.74 "HgN/A
3:50 PM64 °FPartly cloudy.18 mph64%29.74 "HgN/A
3:20 PM63 °FPassing clouds.21 mph68%29.74 "HgN/A
2:50 PM61 °FPassing clouds.16 mph68%29.74 "HgN/A
2:20 PM61 °FPassing clouds.13 mph77%29.74 "HgN/A
1:50 PM59 °FPassing clouds.15 mph82%29.74 "HgN/A
1:20 PM59 °FScattered clouds.7 mph94%29.71 "HgN/A
12:50 PM57 °FLight rain. Partly sunny.18 mph94%29.74 "Hg5 mi
12:20 PM61 °FLight rain. Partly sunny.18 mph72%29.71 "Hg5 mi
11:50 AM63 °FScattered clouds.14 mph68%29.71 "HgN/A
11:20 AM63 °FScattered clouds.16 mph68%29.71 "HgN/A
Weather by CustomWeather, © 2015

See weather overviewHow to use our weather pages